カタログに戻る

FENGYUN 1C DEB

運用中SSO
NORAD 30954·DEBRIS·🇨🇳 China

打ち上げ May 10, 1999 から Taiyuan Satellite Launch Center

Loading…

次のパス (今後24時間)

TLE

最新Source: Space-Track

元期: Sep 14, 2026, 06:06 UTC

1 30954U 99025BAU 26257.25455168  .00001148  00000-0  55870-3 0  9996
2 30954  98.7159 356.1853 0127786 119.7240 268.9633 14.15865528  2844

AllMySatでFENGYUN 1C DEBをリアルタイム追跡

Download on the App Store